sat.trackr.live / text

‹ back to catalog

STARLINK-35487

NORAD 66262 · 2025-245AE

PAYLOAD ACTIVE UNKNOWN

§ Identity

Operator
Country
US
Launch date
2025-10-29
Launch site
AFETR
Launch vehicle
Mass (kg)
RCS (m²)

Purposes: comms

External: N2YO · Heavens-Above · Gunter

§ Orbital elements

Epoch: 2026-05-24T19:43:00.712992Z

Period
94.11 min
Inclination
53.1587°
Eccentricity
0.0001061
Mean motion
15.30202955 rev/d
Perigee alt
474.5 km
Apogee alt
475.9 km
Semi-major
6,853.3 km
B*
3.0509e-4
RAAN
290.1868°
Arg perigee
90.6428°
Mean anomaly
269.4694°
Rev number
3,286

§ Raw data

STARLINK-354871 66262U 25245AE  26144.82153603  .00008688  00000+0  30509-3 0  99942 66262  53.1587 290.1868 0001061  90.6428 269.4694 15.30202955 32865

JSON: /api/v1/satellites/66262 · /tle

For live sub-satellite position, see the globe view (requires WebGL).

§ Visibility from observer

Set your observer location to see the next 7 days of passes ≥ 10°. The values pass through the URL so the page stays shareable.

No JS? Fill the form by hand. The geolocation button needs JavaScript.